period_start,C,m1,H,J0,J1,J2,J3,J4,J5,JA,JB,JC,JD,JJ,JK,JN,#
2016-10-01 00:04:29,-0.00,0.04,0.00,21.97,27.86,31.23,14.78,46.56,1023.32,2031.95,3521.99,3137.10,3553.00,600.10,602.18,16.82,0000 0000 0000 0000 000000
2016-10-01 00:09:30,0.00,0.04,0.00,22.03,27.86,31.21,14.79,46.59,1023.22,2031.97,3521.97,3137.07,3553.00,599.94,601.73,16.87,0000 0000 0000 0000 000000
2016-10-01 00:14:32,0.00,0.04,0.00,22.03,27.86,31.20,14.68,46.52,1023.31,2031.99,3521.98,3137.09,3553.00,599.67,601.63,16.92,0000 0000 0000 0000 000000
2016-10-01 00:19:33,0.01,0.04,0.00,22.00,27.85,31.21,14.68,46.54,1023.22,2031.99,3521.56,3137.02,3553.00,599.91,601.95,16.97,0000 0000 0000 0000 000000
2016-10-01 00:24:34,0.00,0.04,0.00,21.98,27.85,31.21,14.73,46.48,1023.10,2031.99,3521.23,3137.02,3553.00,599.95,601.77,17.02,0000 0000 0000 0000 000000
2016-10-01 00:29:35,0.00,0.04,0.00,22.01,27.85,31.21,14.79,46.54,1023.00,2031.99,3521.08,3137.00,3553.00,599.98,601.82,17.07,0000 0000 0000 0000 000000
2016-10-01 00:34:36,0.00,0.04,0.00,22.00,27.85,31.20,14.84,46.52,1022.97,2031.99,3521.11,3137.00,3553.00,600.27,602.09,17.12,0000 0000 0000 0000 000000
2016-10-01 00:39:37,0.00,0.04,0.00,21.95,27.85,31.21,14.73,46.56,1022.97,2031.99,3521.02,3137.00,3553.00,599.87,601.75,17.17,0000 0000 0000 0000 000000
2016-10-01 00:44:38,0.00,0.04,0.00,22.00,27.85,31.22,14.73,46.55,1022.97,2031.99,3521.00,3137.00,3553.00,600.20,601.93,17.22,0000 0000 0000 0000 000000
2016-10-01 00:49:39,0.00,0.04,0.00,22.10,27.85,31.18,14.72,46.66,1022.96,2031.99,3521.00,3137.00,3552.99,600.13,601.70,17.27,0000 0000 0000 0000 000000
2016-10-01 00:54:40,0.00,0.04,0.00,22.12,27.87,31.23,14.64,46.45,1022.96,2031.99,3521.00,3137.00,3552.97,599.90,601.47,17.32,0000 0000 0000 0000 000000
2016-10-01 00:59:41,0.00,0.04,0.00,22.10,27.87,31.21,14.70,46.54,1022.96,2031.99,3521.00,3137.00,3552.86,599.85,601.46,17.37,0000 0000 0000 0000 000000
2016-10-01 01:04:43,0.00,0.04,0.00,22.10,27.87,31.16,14.78,46.62,1022.96,2031.99,3521.00,3137.00,3552.81,600.22,601.86,17.42,0000 0000 0000 0000 000000
2016-10-01 01:09:44,0.00,0.04,0.00,22.13,27.87,31.19,14.76,46.70,1022.95,2031.99,3520.99,3137.00,3552.75,600.07,601.56,17.47,0000 0000 0000 0000 000000
2016-10-01 01:14:45,0.00,0.04,0.00,22.06,27.87,31.20,14.76,46.63,1022.95,2031.99,3520.96,3136.99,3552.54,600.32,601.94,17.52,0000 0000 0000 0000 000000
2016-10-01 01:19:46,0.00,0.04,0.00,22.02,27.87,31.21,14.67,46.62,1022.92,2031.99,3520.86,3136.97,3552.09,599.88,601.51,17.57,0000 0000 0000 0000 000000
2016-10-01 01:24:47,0.02,0.04,0.00,22.06,27.87,31.20,14.71,46.62,1022.84,2032.00,3520.21,3136.72,3552.01,599.91,601.42,17.62,0000 0000 0000 0000 000000
2016-10-01 01:29:49,0.01,0.04,0.00,22.12,27.87,31.18,14.77,46.66,1022.92,2032.00,3520.06,3136.49,3552.00,600.02,601.49,17.68,0000 0000 0000 0000 000000
2016-10-01 01:34:50,-0.00,0.04,0.00,22.09,27.87,31.18,14.68,46.51,1022.93,2032.00,3520.03,3136.48,3552.00,600.06,601.69,17.73,0000 0000 0000 0000 000000
2016-10-01 01:39:51,0.00,0.04,0.00,22.08,27.87,31.21,14.74,46.55,1022.90,2032.00,3520.02,3136.43,3552.00,600.29,601.93,17.78,0000 0000 0000 0000 000000
2016-10-01 01:44:52,-0.00,0.04,0.00,22.09,27.87,31.20,14.71,46.57,1022.91,2032.00,3520.01,3136.32,3552.00,599.97,601.48,17.83,0000 0000 0000 0000 000000
2016-10-01 01:49:53,-0.00,0.04,0.00,22.15,27.87,31.20,14.65,46.52,1022.89,2032.00,3520.01,3136.43,3552.00,599.79,601.19,17.88,0000 0000 0000 0000 000000
2016-10-01 01:54:54,0.00,0.04,0.00,22.13,27.87,31.21,14.72,46.59,1022.84,2032.00,3520.01,3136.26,3552.00,599.86,601.26,17.93,0000 0000 0000 0000 000000
2016-10-01 01:59:56,0.00,0.04,0.00,22.10,27.87,31.21,14.69,46.59,1022.66,2032.00,3520.00,3136.11,3551.99,599.59,601.10,17.98,0000 0000 0000 0000 000000
2016-10-01 02:04:57,0.00,0.04,0.00,22.08,27.87,31.23,14.71,46.68,1022.52,2032.00,3520.00,3136.06,3551.97,599.86,601.11,18.03,0000 0000 0000 0000 000000
2016-10-01 02:09:59,0.00,0.04,0.00,22.09,27.87,31.27,14.74,46.51,1022.50,2032.00,3519.98,3136.00,3551.79,600.10,601.40,18.08,0000 0000 0000 0000 000000
2016-10-01 02:15:00,0.00,0.04,0.00,22.13,27.87,31.25,14.81,46.58,1022.51,2032.00,3519.97,3136.00,3551.74,600.05,601.39,18.13,0000 0000 0000 0000 000000
2016-10-01 02:20:02,0.01,0.04,0.00,22.11,27.87,31.26,14.68,46.65,1022.49,2032.00,3519.94,3136.00,3551.44,599.85,601.08,18.18,0000 0000 0000 0000 000000
2016-10-01 02:25:03,0.01,0.04,0.00,22.06,27.87,31.28,14.77,46.65,1022.50,2032.00,3519.47,3136.00,3551.04,599.91,601.31,18.23,0000 0000 0000 0000 000000
2016-10-01 02:30:04,0.00,0.04,0.00,22.14,27.87,31.29,14.74,46.62,1022.50,2032.00,3519.09,3136.00,3551.00,600.14,601.36,18.28,0000 0000 0000 0000 000000
2016-10-01 02:35:05,0.00,0.04,0.00,22.16,27.87,31.26,14.69,46.52,1022.49,2032.00,3519.02,3136.00,3551.00,600.12,601.28,18.33,0000 0000 0000 0000 000000
2016-10-01 02:40:06,0.00,0.04,0.00,22.15,27.87,31.25,14.77,46.59,1022.48,2032.00,3519.00,3135.97,3550.99,600.04,601.27,18.38,0000 0000 0000 0000 000000
2016-10-01 02:45:07,0.00,0.04,0.00,22.11,27.88,31.22,14.75,46.63,1022.48,2032.00,3519.00,3135.97,3550.98,599.81,601.08,18.43,0000 0000 0000 0000 000000
2016-10-01 02:50:08,0.00,0.04,0.00,22.12,27.88,31.26,14.73,46.59,1022.48,2032.00,3519.00,3135.95,3550.76,600.12,601.48,18.48,0000 0000 0000 0000 000000
2016-10-01 02:55:09,0.01,0.04,0.00,22.20,27.88,31.24,14.76,46.61,1022.48,2032.00,3518.99,3135.74,3550.24,600.20,601.36,18.53,0000 0000 0000 0000 000000
2016-10-01 03:00:11,0.01,0.04,0.00,22.09,27.88,31.26,14.76,46.64,1022.47,2032.00,3518.87,3135.36,3550.03,599.95,601.34,18.58,0000 0000 0000 0000 000000
2016-10-01 03:05:12,0.01,0.05,0.00,22.06,27.88,31.27,14.75,46.69,1022.47,2032.00,3518.38,3135.08,3550.00,599.90,601.29,18.63,0000 0000 0000 0000 000000
2016-10-01 03:10:13,0.00,0.05,0.00,22.13,27.89,31.31,14.74,46.76,1022.48,2032.00,3518.10,3135.05,3550.00,600.07,601.31,18.68,0000 0000 0000 0000 000000
2016-10-01 03:15:14,0.00,0.05,0.00,22.17,27.89,31.33,14.76,46.70,1022.48,2032.00,3518.07,3135.04,3549.99,599.99,601.12,18.73,0000 0000 0000 0000 000000
2016-10-01 03:20:16,0.00,0.05,0.00,22.20,27.89,31.30,14.71,46.69,1022.48,2032.00,3518.01,3135.01,3549.86,600.15,601.26,18.78,0000 0000 0000 0000 000000
2016-10-01 03:25:17,0.00,0.05,0.00,22.13,27.90,31.28,14.77,46.67,1022.48,2032.00,3518.00,3135.00,3549.33,599.89,601.15,18.83,0000 0000 0000 0000 000000
2016-10-01 03:30:18,0.00,0.05,0.00,22.10,27.90,31.27,14.61,46.63,1022.48,2032.00,3517.91,3135.00,3549.05,599.65,600.91,18.88,0000 0000 0000 0000 000000
2016-10-01 03:35:20,-0.00,0.05,0.00,22.18,27.90,31.27,14.68,46.70,1022.49,2032.00,3517.74,3135.00,3549.00,600.01,601.15,18.93,0000 0000 0000 0000 000000
2016-10-01 03:40:21,0.00,0.05,0.00,22.15,27.90,31.27,14.78,46.63,1022.49,2032.01,3517.65,3135.00,3549.00,600.21,601.35,18.98,0000 0000 0000 0000 000000
2016-10-01 03:45:22,0.03,0.05,0.00,22.08,27.90,31.30,14.74,46.63,1022.48,2032.01,3517.03,3134.59,3548.61,600.06,601.43,19.03,0000 0000 0000 0000 000000
2016-10-01 03:50:23,0.02,0.05,0.00,22.13,27.90,31.34,14.74,46.54,1022.48,2032.02,3516.48,3134.02,3548.01,600.02,601.23,19.08,0000 0000 0000 0000 000000
2016-10-01 03:55:25,0.01,0.05,0.00,22.20,27.90,31.33,14.67,46.56,1022.48,2032.02,3516.02,3133.99,3547.81,599.78,600.86,19.13,0000 0000 0000 0000 000000
2016-10-01 04:00:26,0.00,0.05,0.00,22.19,27.90,31.29,14.68,46.68,1022.48,2032.03,3516.01,3133.96,3547.24,600.03,601.15,19.18,0000 0000 0000 0000 000000
2016-10-01 04:05:27,0.00,0.05,0.00,22.11,27.90,31.29,14.81,46.65,1022.48,2032.03,3515.99,3133.80,3547.01,600.23,601.54,19.23,0000 0000 0000 0000 000000
2016-10-01 04:10:28,0.02,0.05,0.00,22.11,27.90,31.31,14.77,46.75,1022.48,2032.02,3515.73,3133.19,3546.97,600.02,601.22,19.28,0000 0000 0000 0000 000000
2016-10-01 04:15:30,0.01,0.05,0.00,22.14,27.90,31.32,14.63,46.73,1022.48,2032.01,3515.10,3133.02,3546.53,599.63,600.82,19.33,0000 0000 0000 0000 000000
2016-10-01 04:20:31,0.00,0.05,0.00,22.20,27.91,31.32,14.73,46.72,1022.48,2032.01,3515.01,3133.00,3546.03,600.07,601.11,19.38,0000 0000 0000 0000 000000
2016-10-01 04:25:32,0.00,0.05,0.00,22.16,27.92,31.30,14.82,46.71,1022.48,2032.01,3514.99,3132.98,3546.00,600.10,601.30,19.43,0000 0000 0000 0000 000000
2016-10-01 04:30:34,0.02,0.05,0.00,22.11,27.92,31.31,14.76,46.68,1022.49,2032.02,3514.63,3132.73,3545.76,600.05,601.33,19.48,0000 0000 0000 0000 000000
2016-10-01 04:35:35,0.02,0.06,0.00,22.12,27.92,31.34,14.73,46.70,1022.49,2032.02,3514.04,3132.09,3545.07,599.92,601.05,19.53,0000 0000 0000 0000 000000
2016-10-01 04:40:36,-0.00,0.06,0.00,22.23,27.92,31.33,14.72,46.63,1022.49,2032.01,3514.00,3132.00,3544.99,600.17,601.16,19.58,0000 0000 0000 0000 000000
2016-10-01 04:45:37,0.00,0.06,0.00,22.15,27.92,31.33,14.70,46.68,1022.48,2032.01,3513.88,3131.99,3544.89,599.61,600.76,19.63,0000 0000 0000 0000 000000
2016-10-01 04:50:38,0.02,0.06,0.00,22.13,27.92,31.35,14.67,46.89,1022.48,2032.01,3513.23,3131.97,3544.29,599.80,600.99,19.68,0000 0000 0000 0000 000000
2016-10-01 04:55:40,0.01,0.06,0.00,22.14,27.92,31.37,14.72,47.00,1022.48,2032.02,3513.02,3131.60,3544.02,600.06,601.29,19.73,0000 0000 0000 0000 000000
2016-10-01 05:00:41,0.01,0.06,0.00,22.22,27.92,31.33,14.70,46.77,1022.48,2032.02,3513.00,3131.13,3543.99,599.94,601.06,19.78,0000 0000 0000 0000 000000
2016-10-01 05:05:42,0.00,0.06,0.00,22.21,27.92,31.36,14.69,46.72,1022.48,2032.01,3512.91,3131.01,3543.93,600.26,601.31,19.83,0000 0000 0000 0000 000000
2016-10-01 05:10:44,0.01,0.06,0.00,22.19,27.93,31.30,14.71,46.68,1022.48,2032.00,3512.38,3131.00,3543.51,599.81,600.98,19.88,0000 0000 0000 0000 000000
2016-10-01 05:15:45,0.01,0.06,0.00,22.16,27.93,31.32,14.73,46.71,1022.48,2032.01,3512.05,3131.00,3543.07,600.11,601.31,19.93,0000 0000 0000 0000 000000
2016-10-01 05:20:46,0.00,0.06,0.00,22.22,27.94,31.28,14.67,46.66,1022.48,2032.01,3512.00,3130.92,3543.00,599.60,600.61,19.98,0000 0000 0000 0000 000000
2016-10-01 05:25:47,0.01,0.06,0.00,22.26,27.95,31.32,14.75,46.65,1022.48,2032.00,3511.96,3130.44,3542.99,599.96,600.93,20.03,0000 0000 0000 0000 000000
2016-10-01 05:30:49,0.02,0.06,0.00,22.16,27.95,31.29,14.71,46.69,1022.48,2032.01,3511.45,3130.04,3542.62,599.86,601.04,20.08,0000 0000 0000 0000 000000
2016-10-01 05:35:50,0.01,0.06,0.00,22.14,27.95,31.35,14.66,46.77,1022.49,2032.01,3511.03,3130.00,3542.12,600.04,601.33,20.13,0000 0000 0000 0000 000000
2016-10-01 05:40:52,0.00,0.06,0.00,22.16,27.95,31.36,14.74,46.68,1022.59,2032.01,3510.99,3129.98,3542.01,600.00,601.28,20.18,0000 0000 0000 0000 000000
2016-10-01 05:45:53,0.00,0.06,0.00,22.24,27.95,31.35,14.78,46.71,1022.67,2032.02,3510.97,3129.96,3542.00,600.13,601.36,20.23,0000 0000 0000 0000 000000
2016-10-01 05:50:54,0.02,0.06,0.00,22.23,27.95,31.34,14.70,46.67,1022.72,2032.02,3510.52,3129.61,3541.91,600.13,601.34,20.28,0000 0000 0000 0000 000000
2016-10-01 05:55:56,0.02,0.07,0.00,22.19,27.95,31.34,14.78,46.70,1022.67,2032.00,3510.02,3129.07,3541.28,600.07,601.23,20.33,0000 0000 0000 0000 000000
2016-10-01 06:00:57,0.00,0.07,0.00,22.23,27.97,31.34,14.72,46.66,1022.85,2032.00,3509.99,3129.01,3541.02,600.06,601.27,20.38,0000 0000 0000 0000 000000
2016-10-01 06:05:59,0.00,0.07,0.00,22.24,27.97,31.31,14.77,46.69,1022.91,2032.00,3509.98,3129.00,3541.00,599.97,601.23,20.43,0000 0000 0000 0000 000000
2016-10-01 06:11:00,0.01,0.07,0.00,22.22,27.97,31.32,14.72,46.70,1022.92,2032.00,3509.58,3128.98,3540.98,599.97,601.25,20.48,0000 0000 0000 0000 000000
2016-10-01 06:16:01,0.00,0.07,0.00,22.16,27.97,31.36,14.78,46.61,1022.95,2032.00,3509.11,3128.94,3540.84,600.24,601.72,20.53,0000 0000 0000 0000 000000
2016-10-01 06:21:03,0.02,0.07,0.00,22.16,27.97,31.36,14.76,46.67,1022.96,2032.00,3509.00,3128.52,3540.26,600.05,601.56,20.58,0000 0000 0000 0000 000000
2016-10-01 06:26:04,0.00,0.07,0.00,22.24,27.97,31.36,14.67,46.59,1022.96,2032.00,3509.00,3128.12,3540.02,599.73,600.97,20.63,0000 0000 0000 0000 000000
2016-10-01 06:31:05,0.00,0.07,0.00,22.31,27.99,31.34,14.75,46.67,1022.96,2032.00,3508.82,3128.02,3540.00,599.63,600.84,20.68,0000 0000 0000 0000 000000
2016-10-01 06:36:06,0.01,0.07,0.00,22.22,28.00,31.35,14.68,46.71,1022.96,2032.00,3508.14,3128.00,3539.98,599.97,601.24,20.73,0000 0000 0000 0000 000000
2016-10-01 06:41:07,0.00,0.07,0.00,22.19,28.00,31.38,14.78,46.69,1022.96,2032.00,3508.01,3127.99,3539.89,599.97,601.45,20.78,0000 0000 0000 0000 000000
2016-10-01 06:46:09,0.01,0.07,0.00,22.22,28.00,31.38,14.69,46.63,1022.96,2032.00,3508.00,3127.95,3539.20,599.64,600.90,20.83,0000 0000 0000 0000 000000
2016-10-01 06:51:10,0.02,0.07,0.00,22.32,28.00,31.39,14.74,46.58,1022.97,2032.00,3507.84,3127.49,3539.02,600.07,601.15,20.88,0000 0000 0000 0000 000000
2016-10-01 06:56:11,0.01,0.07,0.00,22.32,28.00,31.37,14.77,46.52,1022.97,2032.00,3507.30,3127.10,3539.00,600.17,601.29,20.93,0000 0000 0000 0000 000000
2016-10-01 07:01:13,0.00,0.07,0.00,22.24,28.01,31.40,14.70,46.60,1022.99,2032.00,3507.03,3127.02,3538.96,599.73,601.06,20.98,0000 0000 0000 0000 000000
2016-10-01 07:06:14,0.01,0.07,0.00,22.20,28.02,31.40,14.73,46.52,1022.99,2032.00,3507.00,3127.00,3538.37,600.26,601.72,21.03,0000 0000 0000 0000 000000
2016-10-01 07:11:15,0.00,0.07,0.00,22.26,28.02,31.42,14.78,46.54,1022.98,2032.00,3506.92,3126.99,3538.09,600.03,601.32,21.08,0000 0000 0000 0000 000000
2016-10-01 07:16:17,0.02,0.07,0.00,22.37,28.02,31.42,14.73,46.54,1023.02,2032.00,3506.25,3126.81,3538.01,599.92,600.99,21.13,0000 0000 0000 0000 000000
2016-10-01 07:21:18,0.01,0.07,0.00,22.31,28.02,31.40,14.66,46.53,1023.15,2032.00,3506.01,3126.32,3537.98,600.02,601.29,21.18,0000 0000 0000 0000 000000
2016-10-01 07:26:19,0.00,0.08,0.00,22.26,28.03,31.38,14.76,46.53,1023.08,2032.00,3506.00,3126.05,3537.78,600.14,601.45,21.23,0000 0000 0000 0000 000000
2016-10-01 07:31:21,0.01,0.08,0.00,22.27,28.04,31.43,14.74,46.65,1023.16,2032.00,3505.72,3126.00,3537.17,599.76,601.07,21.28,0000 0000 0000 0000 000000
2016-10-01 07:36:22,0.01,0.08,0.00,22.35,28.05,31.41,14.71,46.63,1023.28,2032.00,3505.04,3125.92,3537.00,600.20,601.43,21.33,0000 0000 0000 0000 000000
2016-10-01 07:41:23,0.01,0.08,0.00,22.30,28.05,31.43,14.74,46.67,1023.39,2032.00,3505.00,3125.64,3536.95,600.00,601.45,21.38,0000 0000 0000 0000 000000
2016-10-01 07:46:24,0.02,0.08,0.00,22.25,28.05,31.41,14.73,46.65,1023.44,2032.00,3504.98,3125.14,3536.45,599.76,601.28,21.43,0000 0000 0000 0000 000000
2016-10-01 07:51:26,0.01,0.08,0.00,22.26,28.05,31.46,14.68,46.65,1023.45,2031.99,3504.31,3125.01,3536.02,599.53,601.10,21.48,0000 0000 0000 0000 000000
2016-10-01 07:56:27,0.01,0.08,0.00,22.28,28.05,31.43,14.75,46.51,1023.46,2031.99,3504.01,3124.82,3535.90,600.39,601.83,21.53,0000 0000 0000 0000 000000
2016-10-01 08:01:28,0.04,0.08,0.00,22.32,28.06,31.40,14.63,46.61,1023.48,2031.99,3503.48,3124.14,3535.21,599.85,601.26,21.58,0000 0000 0000 0000 000000
2016-10-01 08:06:30,0.03,0.08,0.00,22.31,28.07,31.42,14.68,46.59,1023.57,2031.99,3503.00,3123.67,3534.65,599.93,601.45,21.63,0000 0000 0000 0000 000000
2016-10-01 08:11:31,0.01,0.08,0.00,22.25,28.07,31.43,14.75,46.62,1023.86,2031.99,3502.98,3123.08,3534.05,600.23,601.97,21.68,0000 0000 0000 0000 000000
2016-10-01 08:16:33,0.01,0.08,0.00,22.28,28.07,31.45,14.71,46.63,1023.93,2031.99,3502.41,3123.02,3534.00,600.13,601.85,21.73,0000 0000 0000 0000 000000
2016-10-01 08:21:34,0.00,0.09,0.00,22.36,28.07,31.45,14.75,46.61,1023.94,2031.99,3502.01,3122.97,3533.88,599.99,601.65,21.78,0000 0000 0000 0000 000000
2016-10-01 08:26:35,0.03,0.09,0.00,22.39,28.08,31.43,14.76,46.55,1023.94,2031.99,3501.89,3122.31,3533.07,599.96,601.46,21.84,0000 0000 0000 0000 000000
2016-10-01 08:31:37,0.01,0.09,0.00,22.34,28.09,31.47,14.70,46.63,1023.94,2031.99,3501.19,3122.02,3533.00,599.63,601.34,21.89,0000 0000 0000 0000 000000
2016-10-01 08:36:38,0.00,0.09,0.00,22.31,28.10,31.46,14.79,46.57,1023.94,2032.00,3501.04,3122.00,3532.99,600.45,602.11,21.94,0000 0000 0000 0000 000000
2016-10-01 08:41:39,0.00,0.09,0.00,22.34,28.10,31.47,14.77,46.51,1023.95,2032.00,3501.00,3121.99,3532.88,600.10,601.84,21.99,0000 0000 0000 0000 000000
2016-10-01 08:46:40,0.00,0.09,0.00,22.40,28.10,31.46,14.77,46.56,1023.95,2032.00,3501.00,3121.99,3532.48,600.05,601.63,22.04,0000 0000 0000 0000 000000
2016-10-01 08:51:41,0.00,0.09,0.00,22.42,28.10,31.47,14.68,46.57,1023.95,2032.00,3500.97,3121.92,3532.05,599.61,601.22,22.09,0000 0000 0000 0000 000000
2016-10-01 08:56:43,0.02,0.09,0.00,22.30,28.10,31.47,14.70,46.52,1023.98,2032.00,3500.76,3121.56,3532.00,599.99,601.70,22.14,0000 0000 0000 0000 000000
2016-10-01 09:01:44,0.02,0.09,0.00,22.29,28.10,31.51,14.69,46.63,1024.01,2032.00,3500.14,3121.09,3532.00,599.77,601.66,22.19,0000 0000 0000 0000 000000
2016-10-01 09:06:45,0.01,0.09,0.00,22.34,28.11,31.53,14.70,46.59,1024.19,2032.00,3500.00,3121.00,3531.58,599.76,601.74,22.24,0000 0000 0000 0000 000000
2016-10-01 09:11:46,0.00,0.09,0.00,22.43,28.12,31.50,14.70,46.39,1024.30,2032.00,3499.89,3121.00,3531.06,599.87,601.66,22.29,0000 0000 0000 0000 000000
2016-10-01 09:16:48,0.03,0.09,0.00,22.48,28.12,31.50,14.68,46.48,1024.36,2032.00,3499.09,3120.66,3530.87,599.48,601.11,22.34,0000 0000 0000 0000 000000
2016-10-01 09:21:49,0.05,0.10,0.00,22.36,28.12,31.50,14.79,46.54,1024.43,2032.00,3497.99,3119.72,3529.99,600.12,602.03,22.39,0000 0000 0000 0000 000000
2016-10-01 09:26:50,0.04,0.10,0.00,22.37,28.12,31.52,14.76,46.46,1024.43,2032.00,3497.18,3119.05,3529.27,600.07,602.07,22.44,0000 0000 0000 0000 000000
2016-10-01 09:31:52,0.04,0.10,0.00,22.36,28.12,31.51,14.74,46.45,1024.43,2032.00,3496.41,3118.70,3528.70,599.78,601.68,22.49,0000 0000 0000 0000 000000
2016-10-01 09:36:53,0.15,0.10,0.00,22.43,28.12,31.51,14.69,46.38,1024.43,2032.00,3493.26,3116.76,3526.53,599.93,601.63,22.54,0000 0000 0000 0000 000000
2016-10-01 09:41:54,0.19,0.11,0.00,22.48,28.13,31.52,14.72,46.37,1024.43,2032.00,3488.52,3113.87,3523.33,599.95,601.53,22.59,0000 0000 0000 0000 000000
2016-10-01 09:46:56,0.13,0.12,0.00,22.44,28.14,31.54,14.73,46.46,1024.43,2031.98,3485.10,3111.70,3520.92,600.20,601.89,22.64,0000 0000 0000 0000 000000
2016-10-01 09:51:57,0.13,0.13,0.00,22.40,28.15,31.54,14.77,46.45,1024.43,2031.98,3481.66,3109.55,3518.61,600.13,601.96,22.69,0000 0000 0000 0000 000000
2016-10-01 09:56:58,0.07,0.13,0.00,22.36,28.15,31.57,14.75,46.52,1024.43,2031.96,3479.56,3108.29,3517.17,599.83,601.73,22.74,0000 0000 0000 0000 000000
2016-10-01 10:02:00,0.08,0.14,0.00,22.40,28.15,31.56,14.75,46.51,1024.44,2031.91,3477.80,3107.23,3515.77,599.90,601.70,22.79,0000 0000 0000 0000 000000
2016-10-01 10:07:01,0.12,0.14,0.00,22.48,28.15,31.56,14.73,46.44,1024.44,2031.89,3474.73,3105.29,3513.70,600.01,601.66,22.84,0000 0000 0000 0000 000000
2016-10-01 10:12:02,0.16,0.15,0.00,22.46,28.15,31.55,14.70,46.33,1024.52,2031.76,3471.20,3103.04,3511.13,599.86,601.63,22.89,0000 0000 0000 0000 000000
2016-10-01 10:17:03,0.16,0.16,0.00,22.45,28.15,31.57,14.77,46.42,1024.70,2031.66,3466.87,3100.38,3507.99,599.77,601.66,22.94,0000 0000 0000 0000 000000
2016-10-01 10:22:04,0.06,0.16,0.00,22.46,28.15,31.57,14.72,46.55,1024.88,2031.47,3464.80,3099.08,3506.51,599.85,601.98,22.99,0000 0000 0000 0000 000000
2016-10-01 10:27:06,0.03,0.17,0.00,22.46,28.17,31.58,14.73,46.49,1024.92,2031.29,3463.07,3098.03,3505.12,600.17,602.12,23.04,0000 0000 0000 0000 000000
2016-10-01 10:32:07,0.06,0.17,0.00,22.53,28.17,31.59,14.76,46.43,1024.92,2031.34,3462.19,3097.60,3504.63,599.93,601.78,23.09,0000 0000 0000 0000 000000
2016-10-01 10:37:08,0.05,0.17,0.00,22.56,28.17,31.59,14.74,46.42,1024.92,2031.18,3460.41,3096.48,3503.32,599.97,601.77,23.14,0000 0000 0000 0000 000000
2016-10-01 10:42:10,0.13,0.18,0.00,22.49,28.17,31.59,14.78,46.42,1024.92,2031.23,3457.70,3094.72,3501.33,600.25,602.20,23.19,0000 0000 0000 0000 000000
2016-10-01 10:47:11,0.07,0.18,0.00,22.48,28.17,31.61,14.75,46.38,1024.92,2031.11,3455.74,3093.49,3499.79,600.33,602.23,23.24,0000 0000 0000 0000 000000
2016-10-01 10:52:13,0.10,0.19,0.00,22.47,28.18,31.63,14.73,46.32,1024.92,2031.06,3453.39,3091.88,3497.95,599.89,601.81,23.29,0000 0000 0000 0000 000000
2016-10-01 10:57:14,0.14,0.19,0.00,22.52,28.20,31.63,14.64,46.43,1024.92,2031.03,3450.31,3090.02,3495.77,599.56,601.46,23.34,0000 0000 0000 0000 000000
2016-10-01 11:02:15,0.10,0.20,0.00,22.61,28.20,31.61,14.72,46.39,1024.92,2031.01,3447.51,3088.36,3493.74,599.58,601.21,23.39,0000 0000 0000 0000 000000
2016-10-01 11:07:16,0.14,0.20,0.00,22.61,28.20,31.61,14.73,46.39,1024.93,2031.02,3444.44,3086.39,3491.54,599.52,601.15,23.44,0000 0000 0000 0000 000000
2016-10-01 11:12:17,0.16,0.21,0.00,22.57,28.21,31.62,14.76,46.45,1024.94,2031.01,3440.81,3084.04,3488.89,600.35,602.13,23.49,0000 0000 0000 0000 000000
2016-10-01 11:17:19,0.12,0.22,0.00,22.53,28.22,31.64,14.68,46.41,1024.94,2031.00,3437.57,3081.88,3486.30,599.62,601.49,23.54,0000 0000 0000 0000 000000
2016-10-01 11:22:20,0.14,0.23,0.00,22.56,28.22,31.66,14.74,46.34,1024.95,2031.00,3434.68,3079.91,3484.02,600.06,601.90,23.59,0000 0000 0000 0000 000000
2016-10-01 11:27:21,0.04,0.23,0.00,22.60,28.22,31.67,14.70,46.35,1024.93,2031.00,3432.98,3078.95,3482.82,600.35,602.06,23.64,0000 0000 0000 0000 000000
2016-10-01 11:32:22,0.11,0.23,0.00,22.56,28.24,31.66,14.67,46.35,1024.93,2030.99,3430.93,3077.69,3481.28,599.86,601.66,23.69,0000 0000 0000 0000 000000
2016-10-01 11:37:23,0.07,0.24,0.00,22.53,28.25,31.66,14.73,46.45,1024.95,2030.99,3428.66,3076.33,3479.82,599.85,601.75,23.74,0000 0000 0000 0000 000000
2016-10-01 11:42:24,0.01,0.24,0.00,22.54,28.25,31.66,14.70,46.38,1024.98,2030.99,3428.00,3076.00,3479.09,600.00,601.90,23.79,0000 0000 0000 0000 000000
2016-10-01 11:47:25,0.00,0.24,0.00,22.57,28.25,31.69,14.78,46.41,1025.01,2030.99,3427.80,3076.00,3479.00,600.05,601.87,23.84,0000 0000 0000 0000 000000
2016-10-01 11:52:27,0.04,0.24,0.00,22.62,28.27,31.71,14.75,46.26,1024.99,2030.98,3427.00,3075.53,3478.29,599.94,601.66,23.89,0000 0000 0000 0000 000000
2016-10-01 11:57:28,0.03,0.24,0.00,22.64,28.27,31.72,14.74,46.30,1024.95,2030.99,3426.02,3074.92,3477.55,600.08,601.73,23.94,0000 0000 0000 0000 000000
2016-10-01 12:02:29,0.11,0.25,0.00,22.63,28.27,31.73,14.73,46.45,1024.97,2030.98,3423.93,3073.49,3475.78,599.85,601.56,23.99,0000 0000 0000 0000 000000
2016-10-01 12:07:30,0.07,0.25,0.00,22.59,28.28,31.72,14.66,46.40,1024.96,2030.96,3421.67,3072.08,3474.08,600.03,601.80,24.04,0000 0000 0000 0000 000000
2016-10-01 12:12:31,0.03,0.26,0.00,22.56,28.30,31.72,14.72,46.46,1024.95,2030.94,3420.83,3071.72,3473.31,599.89,601.78,24.09,0000 0000 0000 0000 000000
2016-10-01 12:17:33,0.05,0.26,0.00,22.63,28.30,31.72,14.70,46.38,1024.93,2030.91,3419.39,3070.94,3472.10,599.92,601.53,24.14,0000 0000 0000 0000 000000
2016-10-01 12:22:34,0.02,0.26,0.00,22.70,28.30,31.72,14.74,46.31,1024.95,2030.69,3418.59,3070.20,3471.45,600.21,601.81,24.19,0000 0000 0000 0000 000000
2016-10-01 12:27:35,0.07,0.26,0.00,22.69,28.31,31.75,14.73,46.28,1024.98,2030.69,3416.87,3069.31,3470.16,600.02,601.68,24.24,0000 0000 0000 0000 000000
2016-10-01 12:32:36,0.04,0.27,0.00,22.64,28.32,31.74,14.77,46.36,1025.02,2030.57,3415.33,3068.33,3468.99,600.02,601.71,24.29,0000 0000 0000 0000 000000
2016-10-01 12:37:37,0.09,0.27,0.00,22.63,28.32,31.73,14.65,46.23,1025.12,2030.46,3413.33,3067.22,3467.54,599.68,601.42,24.34,0000 0000 0000 0000 000000
2016-10-01 12:42:39,0.09,0.28,0.00,22.60,28.32,31.76,14.71,46.21,1025.26,2030.58,3411.13,3065.82,3465.89,600.15,602.06,24.39,0000 0000 0000 0000 000000
2016-10-01 12:47:40,0.09,0.28,0.00,22.64,28.33,31.74,14.66,46.12,1025.28,2030.48,3408.99,3064.56,3464.31,599.58,601.48,24.44,0000 0000 0000 0000 000000
2016-10-01 12:52:41,0.06,0.28,0.00,22.70,28.35,31.75,14.69,46.22,1025.31,2030.25,3406.61,3063.09,3462.56,600.01,601.75,24.49,0000 0000 0000 0000 000000
2016-10-01 12:57:43,0.05,0.29,0.00,22.72,28.35,31.78,14.71,46.38,1025.30,2030.14,3405.06,3062.15,3461.42,599.91,601.48,24.54,0000 0000 0000 0000 000000